カタログに戻る

SHARJAHSAT-2

運用中科学SSO
NORAD 68444·PAYLOAD·🇦🇪 UAE

打ち上げ Mar 30, 2026 から Vandenberg Space Force Base

Loading…

次のパス (今後24時間)

TLE

最新Source: Space-Track

元期: Sep 14, 2026, 14:53 UTC

1 68444U 26067AE  26257.62047379  .00005515  00000-0  26031-3 0  9998
2 68444  97.4674 215.1049 0003074  65.8695 294.2861 15.19853890 25525

AllMySatでSHARJAHSAT-2をリアルタイム追跡

Download on the App Store